Location: �perlecques
(50.8057°N, 2.1521°E)
Time: 19:35:06
(UTC+00:00)

Vanguard 3 - Pass Details

Date: 31 July 2021
Orbit: 510 x 3260 km, 33.3° (Epoch: 17 September)

Event Time Altitude Azimuth Distance (km) Brightness Sun altitude
Rises 21:26:40 0° 263° (W) 6,679 12.2 -13.6°
Reaches altitude 10° 21:31:14 10° 257° (WSW) 5,897 11.8 -14.0°
Maximum altitude 21:48:05 40° 197° (SSW) 4,185 10.4 -15.5°
Enters shadow 22:00:17 19° 144° (SE) 5,014 10.5 -16.5°
